| time (UTC) | temp F | wind direction | speed MPH | gust MPH | rain 1hr in | rain 24hr in | rain mn in | humidity % | barometer mb |
| 20260506232403 | 63 | 305 | 1.0 | 7.0 | 0.00 | 0.00 | 0.00 | 79 | 1016.4 |
| 20260506231803 | 63 | 316 | 2.0 | 8.0 | 0.00 | 0.00 | 0.00 | 80 | 1016.6 |
| 20260506231203 | 63 | 319 | 4.0 | 8.0 | 0.00 | 0.00 | 0.00 | 78 | 1016.7 |
| 20260506230603 | 63 | 313 | 4.0 | 7.0 | 0.00 | 0.00 | 0.00 | 77 | 1016.8 |
| 20260506230003 | 63 | 299 | 2.0 | 7.0 | 0.00 | 0.00 | 0.00 | 77 | 1017.1 |
| 20260506225403 | 63 | 304 | 1.0 | 5.0 | 0.00 | 0.00 | 0.00 | 79 | 1017.1 |
| 20260506224803 | 63 | 302 | 1.0 | 6.0 | 0.00 | 0.00 | 0.00 | 79 | 1017.1 |
| 20260506224203 | 63 | 278 | 1.0 | 5.0 | 0.00 | 0.00 | 0.00 | 79 | 1017.1 |
| 20260506223603 | 63 | 261 | 1.0 | 5.0 | 0.00 | 0.00 | 0.00 | 78 | 1017.3 |
| 20260506223024 | 62 | 280 | 1.0 | 7.0 | 0.00 | 0.00 | 0.00 | 79 | 1017.2 |
| 20260506222424 | 62 | 320 | 3.0 | 8.0 | 0.00 | 0.00 | 0.00 | 78 | 1017.4 |
| 20260506221824 | 62 | 304 | 3.0 | 8.0 | 0.00 | 0.00 | 0.00 | 78 | 1017.5 |
| 20260506221203 | 62 | 271 | 1.0 | 7.0 | 0.00 | 0.00 | 0.00 | 79 | 1017.7 |
| 20260506220624 | 62 | 264 | 1.0 | 5.0 | 0.00 | 0.00 | 0.00 | 80 | 1017.7 |
| 20260506220003 | 62 | 293 | 2.0 | 8.0 | 0.00 | 0.00 | 0.00 | 79 | 1017.7 |
| 20260506215403 | 61 | 309 | 3.0 | 8.0 | 0.00 | 0.00 | 0.00 | 79 | 1017.7 |
| 20260506214803 | 61 | 279 | 2.0 | 7.0 | 0.00 | 0.00 | 0.00 | 80 | 1017.7 |
| 20260506214203 | 61 | 277 | 3.0 | 7.0 | 0.00 | 0.00 | 0.00 | 80 | 1017.9 |
| 20260506213603 | 61 | 306 | 3.0 | 7.0 | 0.00 | 0.00 | 0.00 | 80 | 1017.9 |
| 20260506213003 | 60 | 302 | 2.0 | 7.0 | 0.00 | 0.00 | 0.00 | 79 | 1017.9 |
| 20260506212403 | 61 | 258 | 2.0 | 7.0 | 0.00 | 0.00 | 0.00 | 78 | 1018.2 |
| 20260506211803 | 61 | 251 | 2.0 | 7.0 | 0.00 | 0.00 | 0.00 | 80 | 1018.2 |
| 20260506211203 | 60 | 256 | 2.0 | 5.0 | 0.00 | 0.00 | 0.00 | 80 | 1018.1 |
| 20260506210603 | 60 | 263 | 0.0 | 3.0 | 0.00 | 0.00 | 0.00 | 78 | 1018.2 |
| 20260506210003 | 60 | 246 | 1.0 | 8.0 | 0.00 | 0.00 | 0.00 | 81 | 1018.3 |
| 20260506205424 | 60 | 265 | 3.0 | 8.0 | 0.00 | 0.00 | 0.00 | 81 | 1018.3 |
| 20260506204803 | 59 | 311 | 3.0 | 8.0 | 0.00 | 0.00 | 0.00 | 81 | 1018.4 |
| 20260506204203 | 59 | 302 | 2.0 | 7.0 | 0.00 | 0.00 | 0.00 | 80 | 1018.4 |
| 20260506203603 | 59 | 274 | 1.0 | 5.0 | 0.00 | 0.00 | 0.00 | 80 | 1018.4 |
| 20260506203024 | 59 | 249 | 2.0 | 7.0 | 0.00 | 0.00 | 0.00 | 80 | 1018.5 |
| 20260506202403 | 58 | 262 | 2.0 | 7.0 | 0.00 | 0.00 | 0.00 | 81 | 1018.6 |
| 20260506201803 | 58 | 264 | 2.0 | 8.0 | 0.00 | 0.00 | 0.00 | 82 | 1018.6 |
| 20260506201203 | 58 | 340 | 1.0 | 4.0 | 0.00 | 0.00 | 0.00 | 82 | 1018.8 |
| 20260506200603 | 58 | 315 | 2.0 | 6.0 | 0.00 | 0.00 | 0.00 | 83 | 1018.8 |
| 20260506200003 | 57 | 303 | 2.0 | 6.0 | 0.00 | 0.00 | 0.00 | 82 | 1018.9 |
| 20260506195424 | 57 | 319 | 2.0 | 6.0 | 0.00 | 0.00 | 0.00 | 84 | 1018.9 |
| 20260506194803 | 57 | 319 | 1.0 | 6.0 | 0.00 | 0.00 | 0.00 | 83 | 1018.9 |
| 20260506194203 | 56 | 313 | 0.0 | 2.0 | 0.00 | 0.00 | 0.00 | 83 | 1018.9 |
| 20260506193624 | 56 | 315 | 1.0 | 4.0 | 0.00 | 0.00 | 0.00 | 83 | 1018.8 |
| 20260506193003 | 56 | 312 | 2.0 | 6.0 | 0.00 | 0.00 | 0.00 | 84 | 1019.1 |
| 20260506192403 | 56 | 309 | 2.0 | 8.0 | 0.00 | 0.00 | 0.00 | 84 | 1019.3 |
| 20260506191803 | 56 | 323 | 2.0 | 8.0 | 0.00 | 0.00 | 0.00 | 84 | 1019.3 |
| 20260506191203 | 56 | 343 | 2.0 | 6.0 | 0.00 | 0.00 | 0.00 | 85 | 1019.4 |
| 20260506190603 | 56 | 330 | 1.0 | 6.0 | 0.00 | 0.00 | 0.00 | 85 | 1019.5 |
| 20260506190003 | 55 | 325 | 2.0 | 5.0 | 0.00 | 0.00 | 0.00 | 85 | 1019.4 |
| 20260506185403 | 55 | 322 | 2.0 | 6.0 | 0.00 | 0.00 | 0.00 | 85 | 1019.4 |
| 20260506184803 | 55 | 321 | 1.0 | 6.0 | 0.00 | 0.00 | 0.00 | 85 | 1019.4 |
| 20260506184203 | 55 | 321 | 1.0 | 6.0 | 0.00 | 0.00 | 0.00 | 85 | 1019.4 |
| 20260506183603 | 55 | 317 | 1.0 | 6.0 | 0.00 | 0.00 | 0.00 | 86 | 1019.4 |
| 20260506183003 | 54 | 310 | 2.0 | 6.0 | 0.00 | 0.00 | 0.00 | 85 | 1019.5 |
| 20260506182424 | 54 | 303 | 1.0 | 5.0 | 0.00 | 0.00 | 0.00 | 86 | 1019.4 |
| 20260506181803 | 54 | 311 | 1.0 | 7.0 | 0.00 | 0.00 | 0.00 | 87 | 1019.4 |
| 20260506181203 | 54 | 316 | 1.0 | 7.0 | 0.00 | 0.00 | 0.00 | 86 | 1019.4 |
| 20260506180603 | 54 | 329 | 0.0 | 2.0 | 0.00 | 0.00 | 0.00 | 86 | 1019.5 |
| 20260506180024 | 54 | 328 | 1.0 | 5.0 | 0.00 | 0.00 | 0.00 | 86 | 1019.5 |
| 20260506175403 | 54 | 322 | 1.0 | 5.0 | 0.00 | 0.00 | 0.00 | 88 | 1019.5 |
| 20260506174803 | 53 | 318 | 1.0 | 4.0 | 0.00 | 0.00 | 0.00 | 87 | 1019.5 |
| 20260506174203 | 53 | 316 | 0.0 | 4.0 | 0.00 | 0.00 | 0.00 | 87 | 1019.5 |
| 20260506173624 | 53 | 316 | 1.0 | 4.0 | 0.00 | 0.00 | 0.00 | 88 | 1019.5 |
| 20260506173003 | 53 | 316 | 1.0 | 4.0 | 0.00 | 0.00 | 0.00 | 87 | 1019.5 |
| 20260506172403 | 53 | 316 | 0.0 | 4.0 | 0.00 | 0.00 | 0.00 | 87 | 1019.5 |
| 20260506171803 | 53 | 308 | 1.0 | 5.0 | 0.00 | 0.00 | 0.00 | 87 | 1019.5 |
| 20260506171203 | 53 | 304 | 1.0 | 5.0 | 0.00 | 0.00 | 0.00 | 87 | 1019.5 |
| 20260506170603 | 53 | 292 | 1.0 | 5.0 | 0.00 | 0.00 | 0.00 | 87 | 1019.5 |
| 20260506170003 | 53 | 281 | 0.0 | 2.0 | 0.00 | 0.00 | 0.00 | 87 | 1019.4 |
| 20260506165424 | 53 | 281 | 0.0 | 2.0 | 0.00 | 0.00 | 0.00 | 88 | 1019.4 |
| 20260506164824 | 52 | 301 | 0.0 | 4.0 | 0.00 | 0.00 | 0.00 | 88 | 1019.4 |
| 20260506164203 | 52 | 341 | 0.0 | 2.0 | 0.00 | 0.00 | 0.00 | 88 | 1019.4 |
| 20260506163603 | 52 | 347 | 0.0 | 5.0 | 0.00 | 0.00 | 0.00 | 88 | 1019.3 |
| 20260506163003 | 52 | 348 | 0.0 | 2.0 | 0.00 | 0.00 | 0.00 | 88 | 1019.3 |
| 20260506162403 | 52 | 349 | 0.0 | 2.0 | 0.00 | 0.00 | 0.00 | 89 | 1019.2 |
| 20260506161824 | 52 | 350 | 0.0 | 2.0 | 0.00 | 0.00 | 0.00 | 89 | 1019.2 |
| 20260506161203 | 52 | 352 | 1.0 | 4.0 | 0.00 | 0.00 | 0.00 | 90 | 1019.2 |
| 20260506160603 | 52 | 356 | 0.0 | 2.0 | 0.00 | 0.00 | 0.00 | 91 | 1019.2 |
| 20260506160003 | 51 | 356 | 0.0 | 1.0 | 0.00 | 0.00 | 0.00 | 90 | 1019.2 |
| 20260506155403 | 51 | 356 | 0.0 | 2.0 | 0.00 | 0.00 | 0.00 | 90 | 1019.2 |
| 20260506154803 | 51 | 356 | 1.0 | 4.0 | 0.00 | 0.00 | 0.00 | 90 | 1019.2 |
| 20260506154203 | 51 | 332 | 1.0 | 7.0 | 0.00 | 0.00 | 0.00 | 91 | 1019.2 |
| 20260506153603 | 51 | 232 | 1.0 | 7.0 | 0.00 | 0.00 | 0.00 | 91 | 1019.1 |
| 20260506153003 | 51 | 181 | 0.0 | 3.0 | 0.00 | 0.00 | 0.00 | 94 | 1019.1 |
| 20260506152403 | 51 | 181 | 1.0 | 3.0 | 0.00 | 0.00 | 0.00 | 95 | 1019.1 |
| 20260506151803 | 51 | 181 | 0.0 | 2.0 | 0.00 | 0.00 | 0.00 | 95 | 1019.1 |
| 20260506151203 | 51 | 181 | 0.0 | 2.0 | 0.00 | 0.00 | 0.00 | 95 | 1019.2 |
| 20260506150624 | 51 | 0 | 0.0 | 0.0 | 0.00 | 0.00 | 0.00 | 95 | 1019.1 |
| 20260506150024 | 50 | 0 | 0.0 | 0.0 | 0.00 | 0.00 | 0.00 | 95 | 1019.2 |
| 20260506145403 | 50 | 0 | 0.0 | 0.0 | 0.00 | 0.01 | 0.00 | 95 | 1019.1 |
| 20260506144803 | 50 | 0 | 0.0 | 0.0 | 0.00 | 0.01 | 0.00 | 95 | 1019.2 |
| 20260506144224 | 50 | 0 | 0.0 | 0.0 | 0.00 | 0.01 | 0.00 | 95 | 1019.2 |
| 20260506143603 | 50 | 181 | 0.0 | 4.0 | 0.00 | 0.01 | 0.00 | 95 | 1019.1 |
| 20260506143024 | 50 | 181 | 0.0 | 4.0 | 0.00 | 0.01 | 0.00 | 95 | 1019.0 |
| 20260506142403 | 50 | 0 | 0.0 | 0.0 | 0.00 | 0.01 | 0.00 | 95 | 1019.0 |
| 20260506141803 | 50 | 181 | 0.0 | 1.0 | 0.00 | 0.01 | 0.00 | 95 | 1019.0 |
| 20260506141203 | 50 | 181 | 0.0 | 1.0 | 0.00 | 0.01 | 0.00 | 95 | 1019.0 |
| 20260506140603 | 50 | 181 | 0.0 | 2.0 | 0.00 | 0.01 | 0.00 | 95 | 1018.9 |
| 20260506140003 | 50 | 0 | 0.0 | 0.0 | 0.00 | 0.01 | 0.00 | 95 | 1018.8 |
| 20260506135424 | 50 | 181 | 0.0 | 2.0 | 0.00 | 0.01 | 0.00 | 95 | 1018.7 |
| 20260506134824 | 50 | 181 | 0.0 | 2.0 | 0.00 | 0.01 | 0.00 | 95 | 1018.7 |
| 20260506134203 | 50 | 181 | 0.0 | 2.0 | 0.00 | 0.01 | 0.00 | 95 | 1018.5 |
| 20260506133603 | 50 | 181 | 0.0 | 2.0 | 0.00 | 0.01 | 0.00 | 95 | 1018.5 |
| 20260506133024 | 50 | 181 | 0.0 | 2.0 | 0.00 | 0.01 | 0.00 | 95 | 1018.5 |
| 20260506132424 | 50 | 181 | 0.0 | 2.0 | 0.00 | 0.01 | 0.00 | 95 | 1018.5 |
| 20260506131803 | 50 | 181 | 0.0 | 2.0 | 0.00 | 0.01 | 0.00 | 95 | 1018.5 |
| 20260506131203 | 50 | 181 | 0.0 | 2.0 | 0.00 | 0.01 | 0.00 | 95 | 1018.6 |
| 20260506130603 | 50 | 181 | 0.0 | 2.0 | 0.00 | 0.01 | 0.00 | 95 | 1018.6 |
| 20260506130003 | 50 | 181 | 0.0 | 2.0 | 0.00 | 0.01 | 0.00 | 95 | 1018.6 |
| 20260506125403 | 50 | 181 | 0.0 | 2.0 | 0.00 | 0.01 | 0.00 | 95 | 1018.6 |
| 20260506124803 | 50 | 181 | 0.0 | 2.0 | 0.00 | 0.01 | 0.00 | 95 | 1018.6 |
| 20260506124203 | 50 | 181 | 0.0 | 2.0 | 0.00 | 0.01 | 0.00 | 95 | 1018.5 |
| 20260506123603 | 50 | 181 | 0.0 | 2.0 | 0.00 | 0.01 | 0.00 | 95 | 1018.4 |
| 20260506123003 | 50 | 181 | 0.0 | 2.0 | 0.00 | 0.01 | 0.00 | 95 | 1018.4 |
| 20260506122403 | 50 | 181 | 0.0 | 2.0 | 0.00 | 0.01 | 0.00 | 95 | 1018.3 |
| 20260506121803 | 50 | 181 | 0.0 | 2.0 | 0.00 | 0.01 | 0.00 | 95 | 1018.2 |
| 20260506121224 | 50 | 181 | 0.0 | 2.0 | 0.00 | 0.01 | 0.00 | 95 | 1018.4 |
| 20260506120603 | 50 | 0 | 0.0 | 0.0 | 0.00 | 0.01 | 0.00 | 95 | 1018.3 |
| 20260506120003 | 50 | 0 | 0.0 | 0.0 | 0.00 | 0.01 | 0.00 | 95 | 1018.2 |
| 20260506115403 | 50 | 181 | 0.0 | 1.0 | 0.00 | 0.01 | 0.00 | 95 | 1018.2 |
| 20260506114803 | 50 | 181 | 0.0 | 1.0 | 0.00 | 0.01 | 0.00 | 95 | 1018.2 |
| 20260506114203 | 50 | 0 | 0.0 | 0.0 | 0.00 | 0.01 | 0.00 | 95 | 1018.3 |
| 20260506113603 | 50 | 0 | 0.0 | 0.0 | 0.00 | 0.01 | 0.00 | 95 | 1018.2 |
| 20260506113003 | 50 | 181 | 0.0 | 2.0 | 0.00 | 0.01 | 0.00 | 95 | 1018.2 |
| 20260506112403 | 50 | 181 | 0.0 | 2.0 | 0.00 | 0.01 | 0.00 | 95 | 1018.2 |
| 20260506111803 | 50 | 181 | 0.0 | 2.0 | 0.00 | 0.01 | 0.00 | 95 | 1018.2 |
| 20260506111203 | 50 | 181 | 0.0 | 2.0 | 0.00 | 0.01 | 0.00 | 95 | 1018.0 |
| 20260506110603 | 50 | 181 | 0.0 | 2.0 | 0.00 | 0.01 | 0.00 | 95 | 1017.9 |
| 20260506110003 | 50 | 181 | 0.0 | 2.0 | 0.00 | 0.01 | 0.00 | 95 | 1017.8 |
| 20260506105403 | 50 | 181 | 1.0 | 3.0 | 0.00 | 0.01 | 0.00 | 95 | 1017.8 |
| 20260506104803 | 50 | 181 | 1.0 | 3.0 | 0.00 | 0.01 | 0.00 | 95 | 1017.8 |
| 20260506104203 | 50 | 181 | 0.0 | 2.0 | 0.00 | 0.01 | 0.00 | 95 | 1017.8 |
| 20260506103603 | 50 | 181 | 0.0 | 2.0 | 0.00 | 0.02 | 0.00 | 95 | 1017.8 |
| 20260506103025 | 50 | 181 | 0.0 | 2.0 | 0.00 | 0.02 | 0.00 | 95 | 1017.7 |
| 20260506102403 | 50 | 181 | 0.0 | 2.0 | 0.00 | 0.02 | 0.00 | 95 | 1017.6 |
| 20260506101803 | 50 | 181 | 0.0 | 1.0 | 0.00 | 0.02 | 0.00 | 95 | 1017.5 |
| 20260506101224 | 50 | 181 | 0.0 | 1.0 | 0.00 | 0.03 | 0.00 | 95 | 1017.5 |
| 20260506100624 | 50 | 181 | 0.0 | 1.0 | 0.00 | 0.03 | 0.00 | 95 | 1017.6 |
| 20260506100024 | 50 | 181 | 0.0 | 2.0 | 0.00 | 0.03 | 0.00 | 95 | 1017.5 |
| 20260506095424 | 50 | 181 | 0.0 | 2.0 | 0.00 | 0.05 | 0.00 | 95 | 1017.5 |
| 20260506094803 | 50 | 0 | 0.0 | 0.0 | 0.00 | 0.05 | 0.00 | 95 | 1017.4 |
| 20260506094203 | 50 | 181 | 0.0 | 1.0 | 0.00 | 0.05 | 0.00 | 95 | 1017.4 |
| 20260506093603 | 50 | 181 | 0.0 | 1.0 | 0.00 | 0.06 | 0.00 | 95 | 1017.5 |
| 20260506093024 | 50 | 0 | 0.0 | 0.0 | 0.00 | 0.06 | 0.00 | 95 | 1017.5 |
| 20260506092403 | 50 | 0 | 0.0 | 0.0 | 0.00 | 0.07 | 0.00 | 95 | 1017.5 |
| 20260506091803 | 50 | 181 | 0.0 | 2.0 | 0.00 | 0.07 | 0.00 | 95 | 1017.5 |
| 20260506091203 | 50 | 181 | 0.0 | 2.0 | 0.00 | 0.07 | 0.00 | 95 | 1017.5 |
| 20260506090624 | 50 | 0 | 0.0 | 0.0 | 0.00 | 0.08 | 0.00 | 95 | 1017.5 |
| 20260506090003 | 50 | 181 | 0.0 | 2.0 | 0.00 | 0.08 | 0.00 | 94 | 1017.6 |
| 20260506085403 | 50 | 181 | 0.0 | 2.0 | 0.00 | 0.09 | 0.00 | 94 | 1017.5 |
| 20260506084803 | 50 | 181 | 0.0 | 1.0 | 0.00 | 0.09 | 0.00 | 94 | 1017.5 |
| 20260506084224 | 50 | 181 | 0.0 | 1.0 | 0.00 | 0.10 | 0.00 | 94 | 1017.5 |
| 20260506083603 | 50 | 181 | 0.0 | 1.0 | 0.00 | 0.12 | 0.00 | 94 | 1017.6 |
| 20260506083003 | 50 | 181 | 0.0 | 2.0 | 0.00 | 0.12 | 0.00 | 94 | 1017.5 |
| 20260506082403 | 50 | 181 | 0.0 | 2.0 | 0.00 | 0.13 | 0.00 | 95 | 1017.6 |
| 20260506081824 | 50 | 0 | 0.0 | 0.0 | 0.00 | 0.13 | 0.00 | 95 | 1017.6 |
| 20260506081203 | 50 | 0 | 0.0 | 0.0 | 0.00 | 0.14 | 0.00 | 95 | 1017.5 |
| 20260506080603 | 50 | 0 | 0.0 | 0.0 | 0.00 | 0.14 | 0.00 | 94 | 1017.6 |
| 20260506073003 | 50 | 0 | 0.0 | 0.0 | 0.00 | 0.20 | 0.00 | 94 | 1017.5 |
| 20260506072403 | 50 | 0 | 0.0 | 0.0 | 0.00 | 0.21 | 0.00 | 94 | 1017.5 |
| 20260506071803 | 50 | 181 | 0.0 | 1.0 | 0.00 | 0.21 | 0.00 | 94 | 1017.4 |
| 20260506071224 | 50 | 0 | 0.0 | 0.0 | 0.00 | 0.22 | 0.00 | 94 | 1017.3 |
| 20260506070603 | 50 | 0 | 0.0 | 0.0 | 0.00 | 0.23 | 0.00 | 94 | 1017.2 |
| 20260506062403 | 50 | 0 | 0.0 | 0.0 | 0.00 | 0.30 | 0.24 | 94 | 1017.0 |
| 20260506061803 | 50 | 181 | 0.0 | 1.0 | 0.00 | 0.31 | 0.24 | 94 | 1017.1 |
| 20260506061224 | 50 | 181 | 0.0 | 1.0 | 0.00 | 0.32 | 0.24 | 94 | 1017.1 |
| 20260506060603 | 50 | 0 | 0.0 | 0.0 | 0.00 | 0.32 | 0.24 | 94 | 1017.0 |
| 20260506051224 | 50 | 0 | 0.0 | 0.0 | 0.00 | 0.43 | 0.24 | 94 | 1016.5 |
| 20260506050603 | 50 | 0 | 0.0 | 0.0 | 0.00 | 0.44 | 0.24 | 94 | 1016.4 |
| 20260506044803 | 50 | 181 | 0.0 | 2.0 | 0.00 | 0.46 | 0.24 | 94 | 1016.2 |
| 20260506044224 | 50 | 181 | 0.0 | 2.0 | 0.00 | 0.47 | 0.24 | 94 | 1016.3 |
| 20260506043603 | 50 | 0 | 0.0 | 0.0 | 0.00 | 0.48 | 0.24 | 94 | 1016.2 |
| 20260506043003 | 50 | 0 | 0.0 | 0.0 | 0.00 | 0.49 | 0.24 | 94 | 1016.2 |
| 20260506042403 | 50 | 0 | 0.0 | 0.0 | 0.00 | 0.51 | 0.24 | 94 | 1016.1 |
| 20260506041803 | 50 | 0 | 0.0 | 0.0 | 0.00 | 0.51 | 0.24 | 94 | 1016.2 |
| 20260506041203 | 50 | 0 | 0.0 | 0.0 | 0.00 | 0.52 | 0.24 | 94 | 1016.1 |
| 20260506040624 | 50 | 0 | 0.0 | 0.0 | 0.00 | 0.53 | 0.24 | 94 | 1016.1 |
| 20260506040003 | 50 | 0 | 0.0 | 0.0 | 0.00 | 0.54 | 0.24 | 94 | 1015.7 |
| 20260506035424 | 50 | 0 | 0.0 | 0.0 | 0.00 | 0.55 | 0.24 | 94 | 1015.8 |
| 20260506034803 | 50 | 0 | 0.0 | 0.0 | 0.00 | 0.56 | 0.24 | 94 | 1015.8 |
| 20260506034203 | 50 | 181 | 0.0 | 2.0 | 0.00 | 0.57 | 0.24 | 94 | 1015.5 |
| 20260506033624 | 50 | 181 | 0.0 | 2.0 | 0.00 | 0.59 | 0.24 | 94 | 1015.4 |
| 20260506033003 | 50 | 0 | 0.0 | 0.0 | 0.00 | 0.60 | 0.24 | 94 | 1015.3 |
| 20260506032403 | 50 | 0 | 0.0 | 0.0 | 0.00 | 0.62 | 0.24 | 94 | 1015.4 |
| 20260506031824 | 50 | 0 | 0.0 | 0.0 | 0.00 | 0.63 | 0.24 | 93 | 1015.5 |
| 20260506031203 | 50 | 0 | 0.0 | 0.0 | 0.00 | 0.64 | 0.24 | 93 | 1015.6 |
| 20260506030624 | 50 | 0 | 0.0 | 0.0 | 0.00 | 0.67 | 0.24 | 93 | 1015.5 |
| 20260506030003 | 50 | 0 | 0.0 | 0.0 | 0.00 | 0.67 | 0.24 | 93 | 1015.5 |
| 20260506025403 | 50 | 0 | 0.0 | 0.0 | 0.00 | 0.69 | 0.24 | 93 | 1015.3 |
| 20260506024824 | 50 | 0 | 0.0 | 0.0 | 0.00 | 0.70 | 0.24 | 93 | 1015.1 |
| 20260506024204 | 51 | 181 | 0.0 | 2.0 | 0.00 | 0.71 | 0.24 | 93 | 1015.0 |
| 20260506023603 | 50 | 181 | 0.0 | 2.0 | 0.00 | 0.71 | 0.24 | 93 | 1015.1 |
| 20260506023003 | 50 | 181 | 0.0 | 1.0 | 0.00 | 0.72 | 0.24 | 93 | 1015.0 |
| 20260506022403 | 50 | 181 | 0.0 | 1.0 | 0.00 | 0.74 | 0.24 | 93 | 1014.9 |
| 20260506021803 | 50 | 181 | 0.0 | 2.0 | 0.00 | 0.75 | 0.24 | 93 | 1014.9 |
| 20260506021203 | 50 | 181 | 0.0 | 4.0 | 0.00 | 0.76 | 0.24 | 93 | 1014.8 |
| 20260506020603 | 50 | 181 | 1.0 | 4.0 | 0.00 | 0.76 | 0.24 | 93 | 1014.8 |
| 20260506020003 | 51 | 181 | 2.0 | 4.0 | 0.00 | 0.78 | 0.24 | 93 | 1014.5 |
| 20260506015403 | 51 | 181 | 1.0 | 5.0 | 0.00 | 0.78 | 0.24 | 93 | 1014.5 |
| 20260506014803 | 51 | 184 | 2.0 | 5.0 | 0.00 | 0.79 | 0.24 | 93 | 1014.5 |
| 20260506014203 | 51 | 196 | 2.0 | 5.0 | 0.00 | 0.80 | 0.24 | 94 | 1014.4 |
| 20260506013624 | 51 | 213 | 1.0 | 5.0 | 0.00 | 0.82 | 0.24 | 94 | 1014.5 |
| 20260506013003 | 50 | 225 | 1.0 | 4.0 | 0.00 | 0.83 | 0.24 | 94 | 1014.5 |
| 20260506012403 | 50 | 225 | 1.0 | 3.0 | 0.00 | 0.84 | 0.24 | 94 | 1014.7 |
| 20260506011803 | 50 | 225 | 1.0 | 3.0 | 0.00 | 0.85 | 0.24 | 93 | 1014.7 |
| 20260506011224 | 50 | 0 | 0.0 | 0.0 | 0.00 | 0.86 | 0.24 | 93 | 1014.7 |
| 20260506010603 | 50 | 225 | 1.0 | 3.0 | 0.00 | 0.87 | 0.24 | 93 | 1014.8 |
| 20260506010003 | 50 | 225 | 1.0 | 4.0 | 0.00 | 0.89 | 0.24 | 93 | 1014.7 |
| 20260506005403 | 50 | 225 | 1.0 | 4.0 | 0.00 | 0.90 | 0.24 | 93 | 1014.6 |
| 20260506004824 | 50 | 225 | 1.0 | 4.0 | 0.00 | 0.91 | 0.24 | 93 | 1014.5 |
| 20260506004203 | 50 | 225 | 1.0 | 4.0 | 0.00 | 0.92 | 0.24 | 93 | 1014.5 |
| 20260506003603 | 50 | 225 | 1.0 | 3.0 | 0.00 | 0.94 | 0.24 | 93 | 1014.4 |
| 20260506003003 | 50 | 225 | 1.0 | 3.0 | 0.00 | 0.97 | 0.24 | 93 | 1014.3 |
| 20260506002403 | 50 | 225 | 0.0 | 3.0 | 0.00 | 0.98 | 0.24 | 93 | 1014.4 |
| 20260506001803 | 50 | 224 | 1.0 | 5.0 | 0.00 | 0.99 | 0.24 | 93 | 1014.2 |
| 20260506001203 | 50 | 223 | 1.0 | 5.0 | 0.00 | 1.01 | 0.24 | 93 | 1014.2 |
| 20260506000603 | 51 | 221 | 0.0 | 4.0 | 0.00 | 1.02 | 0.24 | 93 | 1014.3 |
| 20260506000003 | 51 | 226 | 2.0 | 4.0 | 0.00 | 1.03 | 0.24 | 93 | 1014.2 |
| 20260505235403 | 51 | 255 | 2.0 | 5.0 | 0.00 | 1.03 | 0.24 | 93 | 1014.1 |
| 20260505234803 | 51 | 298 | 0.0 | 2.0 | 0.00 | 1.06 | 0.24 | 93 | 1014.2 |
| 20260505234203 | 51 | 298 | 0.0 | 4.0 | 0.00 | 1.07 | 0.24 | 93 | 1014.3 |
| 20260505233603 | 50 | 298 | 0.0 | 1.0 | 0.00 | 1.07 | 0.24 | 93 | 1014.2 |
| 20260505233024 | 50 | 298 | 0.0 | 1.0 | 0.00 | 1.07 | 0.24 | 92 | 1014.3 |